Regional Weather Roundup
Issued by NWS

Home | Current Version | Previous Version | Text Only | Print | Product List | Glossary On
Versions: 1 2 3 4 5 6 7 8 9 10 11 12 13 14 15 16 17 18 19 20 21 22 23 24 25 26 27
000
ASUS42 KFFC 242203
RWRGA
WEATHER ROUNDUP FOR GEORGIA
NATIONAL WEATHER SERVICE PEACHTREE CITY GA
600 PM EDT THU APR 24 2014

NOTE: "FAIR" INDICATES FEW OR NO CLOUDS BELOW 12,000 FEET WITH NO
SIGNIFICANT WEATHER AND/OR OBSTRUCTIONS TO VISIBILITY.

* = USE WITH CAUTION. THE STATIONS MARKED WITH AN ASTERISK MAY NOT
REPORT WEATHER SUCH AS PRECIPITATION, FOG, OR THUNDER AND ARE NOT
QUALITY CONTROLLED BY NWS.

THE REMARK "TC" DENOTES TEMPERATURE READING IN DEGREES CELSIUS.

GAZ001>058-242300-
NORTH GEORGIA

CITY           SKY/WX    TMP DP  RH WIND       PRES   REMARKS
ATLANTA        PTSUNNY   78  48  34 SW7       29.93F
ATHENS         SUNNY     78  45  30 VRB3      29.96S
CHAMBLEE       MOSUNNY   79  48  33 VRB6      29.93F
PEACHTREE CITY MOSUNNY   81  47  30 CALM      29.93F
ROME           SUNNY     80  50  34 VRB3      29.88F
WEST ATLANTA   SUNNY     80  48  32 S7        29.92F
GAINESVILLE    SUNNY     75  42  30 CALM      29.98F
CARTERSVILLE   MOSUNNY   79  50  36 VRB5      29.91F


CITY           SKY/WX    TMP DP  RH WIND       PRES   REMARKS
DALTON*        SUNNY     77  48  36 CALM      29.91F
LAWRENCEVILLE* MOSUNNY   79  45  29 CALM      29.95F
MARIETTA       PTSUNNY   80  48  32 SW9       29.93F
KENNESAW*      MOSUNNY   77  48  36 SW9G18    29.94F
$$

GAZ059>098-102>109-242300-
CENTRAL GEORGIA

CITY           SKY/WX    TMP DP  RH WIND       PRES   REMARKS
AUGUSTA-BUSH   MOSUNNY   81  46  29 SW6       29.94S
AUGUSTA-DANIEL MOSUNNY   82  46  28 S8        29.95S
COLUMBUS       PTSUNNY   82  50  32 S10       29.91F
MACON          MOSUNNY   81  51  35 SW9       29.93S
ROBINS AFB     PTSUNNY   84  51  32 VRB6      29.93S


CITY           SKY/WX    TMP DP  RH WIND       PRES   REMARKS
LAGRANGE*      MOSUNNY   83  54  36 W8G17     29.92F
SYLVANIA*      PTSUNNY   78  60  54 SE7       29.97R
MILLEDGEVILLE* MOSUNNY   84  23  10 W7        29.94S
$$

GAZ099>101-110>166-242300-
SOUTH GEORGIA

CITY           SKY/WX    TMP DP  RH WIND       PRES   REMARKS
SAVANNAH       PTSUNNY   75  60  59 E13       29.98R
VALDOSTA       MOSUNNY   88  57  34 SW5       29.92S
ALMA           MOSUNNY   84  54  35 CALM      29.93S
ST SIMONS      MOSUNNY   74  66  76 E7        29.96R
FT STEWART     SUNNY     76  67  73 E13       29.95S
ALBANY         MOSUNNY   84  55  36 CALM      29.94S
HUNTER AFB     PTSUNNY   70  62  74 E10       29.97R
BRUNSWICK      PTSUNNY   77  66  69 E9        29.96R


CITY           SKY/WX    TMP DP  RH WIND       PRES   REMARKS
BAINBRIDGE*    PTSUNNY   88  61  40 W10       29.92R
MOULTRIE*      SUNNY     82  61  47 S3        29.93S
VIDALIA*       SUNNY     82  54  36 SW5       29.95S
DOUGLAS*       CLOUDY    84  55  37 CALM      29.94F
$$



USA.gov is the U.S. government's official web portal to all federal, state and local government web resources and services.